Wind_Speed
23 24 29 26 27 22 20 13 15 16 17 22 24 21 20 21 21 22 21 19 18 15 14 21 17 14 9 10 14 9 8 9 11 13 15 17 18 17 15 20 20 19 10
28 29 32 21 25 29 25 17 12 16 16 18 22 23 21 21 21 22 21 20 19 16 16 16 12 12 6 11 8 8 8 6 8 9 12 14 13 13 15 16 18 21 13
21 20 25 15 26 23 21 11 11 14 14 16 17 19 19 18 18 19 19 20 20 20 17 17 8 14 13 11 10 8 7 4 7 8 10 13 15 10 7 8 11 21 16
23 14 14 11 8 12 12 9 12 14 14 14 15 15 15 13 13 13 14 16 18 20 18 16 13 13 12 12 13 11 10 9 8 8 8 11 15 14 5 2 5 11 18
27 24 20 13 13 15 14 12 13 14 14 14 12 14 13 12 12 12 12 13 14 17 16 15 15 13 12 12 11 12 13 12 12 12 11 12 13 13 7 3 3 4 5
27 25 19 19 16 17 19 16 15 14 13 15 15 15 14 15 17 16 16 15 15 15 16 16 15 14 14 15 14 13 14 14 15 15 15 13 13 10 8 8 7 7 7
20 23 21 18 27 18 25 24 24 20 16 15 17 18 17 18 20 21 19 19 16 17 17 18 18 19 19 19 18 18 17 17 16 16 17 16 15 14 11 10 9 8 8
25 24 24 25 26 24 25 32 35 30 13 13 14 22 19 20 22 23 21 20 20 21 23 21 22 22 21 22 23 22 22 21 22 21 21 22 19 17 16 14 13 14 15
33 27 27 29 29 30 32 30 29 26 9 13 21 25 19 20 25 24 23 22 24 23 22 23 24 24 23 25 26 27 27 29 29 29 27 26 25 23 21 22 22 20 21
38 34 31 33 36 36 36 31 29 25 22 22 26 27 22 22 26 27 28 25 26 27 27 24 23 24 24 25 28 31 32 34 38 38 37 36 31 29 29 28 26 27 28
42 39 37 35 36 38 37 35 37 34 34 32 28 29 34 32 31 35 35 34 31 30 31 30 28 28 27 29 29 32 38 39 41 47 48 45 43 36 33 33 35 34 34
42 42 41 41 39 38 41 43 42 40 43 44 42 41 40 39 42 41 42 42 40 37 37 34 32 33 33 36 34 32 31 38 47 46 49 54 50 46 40 38 36 36 38
47 46 45 47 47 46 46 45 44 46 47 50 52 51 51 49 47 44 48 50 47 45 42 40 38 38 37 37 39 37 40 39 45 48 55 49 55 51 46 42 41 38 43
48 48 49 49 49 51 50 50 48 49 49 50 54 57 57 54 49 48 50 48 49 48 46 44 45 44 40 42 41 37 40 39 37 46 44 48 54 52 47 46 47 44 40
53 53 53 53 52 53 52 53 52 51 52 54 53 51 52 49 47 43 48 51 51 48 47 48 44 41 42 43 40 38 34 34 38 32 27 29 41 53 52 42 41 41 41
55 56 57 56 56 58 58 57 56 56 55 57 57 56 56 54 46 44 42 43 44 45 44 41 40 41 43 42 40 38 34 36 34 28 24 25 27 36 40 50 40 30 30
59 59 58 57 56 57 59 61 60 57 56 58 59 60 57 59 50 48 44 42 40 39 36 36 38 40 40 39 39 37 35 36 35 29 28 30 25 27 28 27 22 27 30
60 58 59 59 59 59 59 59 59 57 57 56 57 56 52 57 53 51 47 40 37 35 34 35 37 39 38 36 38 36 36 36 34 32 29 28 29 31 25 21 27 30 33
42 46 49 50 50 50 50 52 54 56 57 58 56 49 49 47 50 46 45 39 38 35 36 36 38 40 37 36 38 36 37 36 34 33 33 32 28 28 29 31 34 35 35
46 48 50 51 52 52 54 54 55 56 57 54 53 49 47 40 40 42 44 39 36 36 37 37 35 36 36 37 39 38 37 36 36 34 34 32 32 31 32 34 35 36 39
48 48 50 49 46 46 47 48 48 51 54 54 55 50 47 44 36 39 44 40 38 37 37 37 34 35 36 37 36 33 32 33 35 34 31 33 32 33 36 36 37 40 41
50 49 49 50 51 48 45 47 46 42 44 49 58 51 50 47 41 40 43 43 40 38 39 37 34 36 34 34 34 34 33 33 34 31 32 33 33 35 36 40 42 42 41
43 45 47 49 49 50 50 49 51 43 40 44 55 55 51 45 43 41 42 44 43 41 38 35 35 34 32 32 33 31 30 30 36 40 33 32 34 36 39 42 43 41 38
52 53 54 56 57 56 54 48 47 44 40 46 51 50 51 45 43 41 42 43 42 38 35 35 34 32 29 31 32 29 27 36 31 29 27 32 35 37 40 37 35 36 36
41 44 42 37 35 37 43 35 35 41 39 42 42 45 46 44 41 41 41 39 37 36 35 34 32 31 30 31 32 31 32 31 28 27 30 33 37 39 36 36 37 38 39
44 26 29 26 26 29 29 34 38 37 34 34 40 44 44 41 38 38 37 35 35 36 35 34 32 31 35 29 30 33 34 32 28 29 34 37 38 37 36 37 38 38 39
Wind_Direction
330 330 313 298 265 262 251 252 268 267 256 260 260 251 247 254 259 261 261 261 261 261 268 269 253 268 277 278 290 287 285 296 301 309 308 301 297 292 295 287 265 268 232
317 318 314 292 264 250 253 248 258 269 266 255 256 252 249 251 261 268 269 265 260 258 259 257 254 284 286 283 277 260 267 282 308 315 319 314 306 283 283 297 260 266 265
321 314 325 258 236 215 232 236 253 262 266 261 253 250 255 260 264 271 271 263 253 250 247 273 240 266 252 264 276 280 265 270 293 318 326 329 329 304 255 309 257 255 250
297 312 315 295 249 232 229 239 251 259 260 262 248 243 247 260 271 276 270 263 248 240 241 256 270 277 270 271 274 283 293 297 300 307 324 330 334 327 257 320 337 266 266
290 289 303 278 270 245 229 228 243 254 257 258 252 243 238 245 251 262 263 259 251 243 247 250 265 270 275 275 282 292 296 298 291 295 304 318 328 341 286 273 306 332 349
281 274 281 289 278 277 267 243 228 237 244 251 250 250 256 253 256 256 252 251 257 253 251 259 266 272 270 271 273 275 278 282 284 287 293 305 308 321 328 285 277 273 272
276 275 272 259 249 240 258 248 243 220 217 236 252 258 258 258 260 259 254 254 251 253 256 263 265 264 264 268 271 269 268 272 276 282 285 288 289 294 298 304 307 296 279
286 276 276 279 282 279 280 249 243 224 200 259 238 249 246 255 256 256 255 258 258 260 261 258 262 267 272 278 281 284 286 287 288 286 284 284 286 287 283 282 285 286 285
285 285 266 266 272 270 272 268 279 291 265 258 279 256 254 254 256 257 258 254 258 262 264 267 271 276 282 287 291 293 293 294 293 292 288 287 288 286 283 283 282 279 278
277 278 271 259 264 269 266 264 273 272 265 259 269 267 251 255 265 266 263 257 258 262 267 270 273 277 281 289 291 290 288 288 293 292 288 285 280 283 284 285 283 281 278
278 277 274 266 261 258 262 264 259 255 250 252 254 261 249 251 256 261 266 262 258 258 263 266 266 268 268 272 278 305 294 292 296 294 285 280 280 274 275 277 277 279 281
274 276 276 273 271 264 258 259 264 262 258 253 256 261 263 263 263 262 261 261 260 258 257 254 259 265 267 272 278 297 284 287 294 292 300 272 270 270 273 273 273 273 275
268 268 266 269 269 268 267 263 259 257 255 256 258 258 264 262 260 262 262 262 262 262 259 257 263 264 273 282 279 282 287 291 297 297 296 270 255 261 263 267 270 271 277
265 263 264 265 266 267 267 267 265 262 260 256 255 255 261 257 254 258 255 255 260 263 266 266 266 268 269 273 275 279 285 294 300 307 290 264 250 254 258 265 267 275 284
266 265 264 265 265 264 263 265 265 266 266 263 259 256 255 259 254 248 252 249 253 260 262 263 265 269 269 271 274 276 285 294 307 304 274 281 275 260 267 275 282 280 289
268 266 264 263 264 265 265 265 266 266 266 264 262 259 256 255 257 256 256 248 246 252 258 262 264 267 268 266 263 272 272 284 295 297 279 279 276 264 268 268 274 282 285
269 266 265 265 265 264 265 266 266 265 264 264 263 262 258 254 254 254 254 249 247 247 253 257 261 264 266 265 263 264 264 275 289 278 280 292 287 283 263 257 267 278 284
268 266 266 269 270 269 266 262 260 261 263 263 264 263 260 253 250 249 251 251 247 251 256 255 252 258 261 262 257 260 265 271 280 275 272 275 273 274 284 277 275 278 282
274 268 266 264 264 262 259 260 257 257 261 260 259 255 255 251 242 243 246 248 246 246 250 251 249 251 257 258 260 260 262 268 274 277 280 279 273 274 273 274 276 278 280
272 270 267 265 264 262 264 262 258 257 257 253 251 250 247 250 241 237 241 244 244 246 250 252 254 255 254 254 256 257 261 267 274 279 282 276 274 275 275 273 277 281 283
274 268 267 264 263 263 259 258 263 260 252 250 240 240 242 243 248 236 237 237 241 243 247 251 255 258 258 255 255 258 264 270 271 275 278 278 274 272 275 280 283 286 290
272 269 265 262 264 266 262 259 263 261 254 243 231 232 234 240 244 239 234 234 239 244 245 249 254 254 256 257 255 255 263 269 271 272 269 266 269 274 281 287 290 291 292
278 275 271 268 267 267 264 258 257 257 249 241 232 228 230 236 236 236 233 233 238 242 243 246 248 253 253 251 250 260 265 269 271 279 259 262 272 281 286 291 293 292 292
288 284 277 271 268 266 262 260 252 245 245 238 231 226 228 229 228 230 229 232 235 238 242 245 245 249 248 252 256 257 266 274 269 253 260 271 279 288 292 292 290 291 292
288 285 281 275 264 261 255 230 225 237 242 233 220 212 216 219 223 224 227 230 232 234 237 240 242 246 247 249 249 258 267 262 258 266 273 280 288 292 288 289 290 291 293
292 288 285 269 267 240 225 213 215 226 224 213 210 213 214 215 220 221 222 224 229 233 235 238 238 243 248 240 259 259 248 246 257 275 282 288 289 287 287 288 291 294 298
Height
5937 5934 5932 5930 5930 5932 5931 5929 5930 5931 5931 5933 5933 5931 5930 5931 5932 5932 5933 5933 5934 5935 5935 5932 5932 5929 5928 5929 5927 5926 5926 5924 5923 5923 5921 5919 5918 5917 5916 5915 5914 5914 5914
5931 5929 5922 5915 5918 5924 5927 5925 5926 5928 5928 5928 5929 5928 5927 5927 5929 5929 5929 5930 5931 5933 5931 5929 5928 5926 5926 5926 5924 5923 5923 5922 5921 5919 5918 5916 5914 5913 5912 5911 5910 5910 5910
5927 5924 5918 5906 5899 5914 5920 5919 5920 5923 5924 5925 5925 5924 5924 5925 5925 5925 5926 5926 5927 5928 5929 5924 5925 5926 5926 5925 5924 5923 5922 5920 5919 5918 5917 5915 5912 5909 5908 5907 5907 5906 5905
5924 5922 5919 5917 5912 5913 5913 5913 5916 5918 5920 5920 5921 5921 5921 5922 5922 5922 5923 5922 5922 5923 5924 5923 5924 5924 5924 5924 5923 5922 5922 5920 5919 5918 5916 5914 5912 5908 5905 5903 5904 5904 5904
5918 5917 5915 5913 5912 5911 5908 5908 5911 5913 5914 5917 5916 5916 5917 5918 5919 5919 5920 5920 5919 5920 5923 5923 5922 5922 5922 5922 5922 5921 5920 5919 5918 5917 5915 5914 5911 5909 5906 5903 5901 5901 5902
5911 5909 5909 5910 5910 5910 5911 5909 5907 5908 5909 5910 5910 5911 5912 5914 5915 5916 5918 5918 5918 5919 5921 5922 5921 5920 5919 5918 5919 5917 5917 5915 5915 5914 5913 5913 5911 5908 5907 5905 5903 5901 5901
5905 5904 5904 5904 5900 5901 5905 5906 5905 5899 5899 5904 5904 5905 5906 5909 5911 5912 5913 5914 5915 5916 5916 5917 5917 5917 5917 5916 5916 5915 5913 5912 5911 5911 5909 5909 5908 5907 5906 5905 5905 5903 5901
5897 5898 5896 5895 5891 5894 5896 5896 5883 5875 5881 5901 5896 5894 5900 5903 5907 5907 5909 5910 5910 5912 5912 5913 5914 5914 5915 5915 5915 5915 5914 5913 5910 5909 5907 5905 5904 5903 5903 5901 5901 5901 5900
5888 5889 5889 5888 5888 5888 5888 5886 5880 5878 5879 5884 5888 5895 5895 5897 5899 5901 5904 5905 5905 5906 5908 5910 5911 5912 5913 5912 5911 5911 5910 5909 5908 5907 5905 5903 5900 5899 5897 5897 5897 5896 5896
5877 5878 5880 5879 5879 5878 5878 5877 5875 5874 5878 5882 5884 5885 5888 5893 5895 5896 5897 5900 5900 5901 5902 5903 5905 5906 5906 5907 5906 5904 5903 5903 5902 5902 5901 5899 5895 5894 5892 5890 5890 5890 5889
5867 5866 5867 5868 5868 5868 5869 5870 5872 5873 5874 5877 5879 5881 5884 5885 5887 5888 5889 5891 5893 5894 5895 5895 5896 5897 5897 5895 5894 5895 5894 5893 5892 5891 5892 5891 5891 5888 5885 5884 5882 5882 5881
5858 5857 5855 5856 5856 5857 5857 5858 5859 5862 5863 5865 5868 5871 5873 5876 5878 5879 5879 5880 5881 5883 5884 5885 5885 5886 5888 5889 5888 5886 5885 5882 5881 5878 5876 5876 5877 5878 5876 5874 5872 5872 5873
5847 5846 5845 5843 5843 5844 5844 5846 5847 5848 5851 5853 5855 5859 5862 5864 5866 5868 5868 5867 5868 5871 5873 5875 5877 5877 5879 5879 5879 5877 5875 5870 5866 5862 5855 5856 5861 5864 5863 5863 5863 5862 5862
5832 5832 5832 5831 5831 5830 5831 5833 5834 5836 5839 5841 5843 5845 5847 5852 5854 5854 5855 5855 5856 5860 5862 5864 5866 5866 5868 5869 5870 5867 5863 5859 5854 5847 5840 5839 5842 5848 5851 5851 5851 5851 5851
5818 5818 5818 5817 5817 5817 5818 5818 5820 5822 5824 5825 5828 5831 5833 5836 5840 5841 5841 5844 5844 5845 5850 5851 5854 5855 5856 5856 5856 5854 5852 5848 5846 5839 5831 5831 5836 5836 5839 5841 5841 5841 5839
5801 5801 5801 5801 5801 5800 5800 5802 5803 5805 5807 5808 5811 5815 5818 5821 5824 5827 5829 5831 5833 5835 5836 5840 5843 5844 5843 5844 5844 5843 5842 5839 5837 5837 5834 5829 5824 5823 5827 5831 5830 5830 5830
5781 5781 5780 5780 5782 5783 5783 5783 5784 5786 5787 5790 5794 5796 5801 5804 5810 5813 5816 5818 5820 5822 5827 5829 5830 5831 5831 5833 5833 5833 5832 5831 5830 5830 5825 5822 5820 5818 5818 5818 5820 5822 5821
5760 5761 5761 5761 5761 5762 5763 5765 5766 5767 5769 5773 5776 5779 5783 5787 5793 5797 5801 5805 5808 5810 5814 5818 5819 5819 5820 5821 5822 5823 5823 5823 5823 5823 5818 5815 5815 5814 5811 5811 5814 5813 5811
5740 5740 5740 5740 5741 5743 5744 5745 5748 5749 5752 5755 5756 5765 5766 5770 5777 5783 5787 5792 5796 5799 5803 5805 5807 5809 5810 5810 5811 5811 5813 5813 5813 5812 5809 5808 5806 5805 5805 5805 5804 5803 5801
5725 5724 5723 5723 5723 5724 5725 5727 5728 5730 5732 5736 5741 5747 5753 5756 5762 5770 5774 5779 5784 5788 5791 5793 5796 5797 5798 5799 5800 5801 5803 5803 5803 5801 5800 5798 5798 5797 5796 5795 5794 5793 5792
5707 5706 5705 5704 5705 5706 5706 5708 5709 5709 5710 5716 5722 5731 5739 5744 5750 5757 5763 5768 5773 5778 5779 5782 5783 5785 5788 5788 5790 5792 5792 5793 5792 5793 5792 5791 5790 5789 5789 5787 5785 5784 5782
5690 5688 5687 5686 5686 5687 5691 5691 5691 5692 5694 5696 5705 5714 5724 5731 5739 5745 5751 5757 5762 5766 5768 5772 5775 5775 5777 5780 5781 5782 5783 5783 5783 5783 5783 5782 5782 5781 5780 5779 5776 5773 5769
5671 5669 5668 5667 5667 5667 5669 5673 5673 5676 5681 5684 5691 5701 5709 5718 5727 5734 5740 5746 5751 5755 5760 5763 5765 5767 5768 5770 5772 5774 5774 5774 5773 5773 5772 5773 5773 5773 5771 5768 5765 5761 5757
5650 5646 5644 5642 5642 5642 5645 5650 5655 5661 5667 5672 5676 5690 5699 5708 5715 5722 5729 5735 5741 5747 5751 5754 5756 5757 5759 5761 5762 5764 5764 5763 5762 5762 5764 5765 5764 5762 5760 5756 5753 5750 5747
5629 5625 5620 5619 5618 5619 5625 5633 5641 5648 5653 5657 5669 5679 5689 5697 5704 5711 5718 5726 5733 5737 5741 5744 5746 5748 5750 5752 5753 5754 5753 5754 5755 5755 5755 5755 5753 5751 5749 5745 5743 5740 5736
5613 5609 5607 5605 5602 5606 5611 5620 5631 5638 5643 5652 5661 5671 5681 5689 5696 5703 5710 5718 5723 5728 5732 5734 5737 5738 5740 5742 5744 5743 5743 5744 5745 5747 5746 5744 5742 5740 5737 5735 5732 5729 5724